#timestamp,LO_Frequency,Hit,StdDev 
1515441615.2,286047000.3,N
1515441635.1,286047002.0,N
1515441636.0,286047002.0,N
1515441655.8,286047001.5,N
1515441675.6,286047000.1,N
1515441695.5,286047000.2,N
1515441715.3,286047002.7,N
1515441735.2,286047001.6,N
1515441755.9,286047000.9,N
1515441775.7,286047000.2,N
1515441795.6,286047001.6,N
1515441815.4,286047001.3,N
1515441835.2,286047001.9,N
1515441855.1,286047002.6,N
1515441856.0,286047002.6,N
1515441875.8,286047001.6,N
1515441895.7,286047002.6,N
1515441915.5,286047004.2,Y
1515441935.3,286047000.3,P
1515441955.2,286046999.7,N
1515441975.0,286046999.8,N
1515441975.9,286046999.8,N
1515441995.8,286047000.9,N
1515442015.6,286046998.3,Y
1515442035.4,286046999.3,P
1515442055.3,286046996.5,P
1515442075.1,286046999.2,N
1515442095.8,286047000.8,N
1515442115.7,286046998.4,N
1515442135.5,286047000.8,N
1515442155.4,286047000.7,N
1515442175.2,286047001.1,N
1515442195.0,286047002.6,N
1515442195.9,286047002.6,N
1515442215.8,286047000.9,N
1515442235.6,286047000.6,N
1515442255.5,286047001.0,N
1515442275.3,286046998.5,N
1515442295.1,286046998.5,N
1515442315.9,286047001.2,N
1515442335.7,286046998.5,N
1515442355.5,286046998.9,N
1515442375.4,286046998.1,N
1515442395.2,286046998.7,N
1515442415.1,286046998.3,N
1515442416.0,286046998.3,N
1515442435.8,286046998.4,N
1515442455.6,286046998.7,N
1515442475.5,286046999.2,N
1515442495.3,286046996.7,N
1515442515.1,286046996.6,N
1515442535.9,286046999.5,N
1515442555.7,286046998.8,N
1515442575.6,286046999.4,N
1515442595.4,286046998.8,N
1515442615.2,286046998.9,N
1515442635.1,286047000.7,N
1515442636.0,286047000.7,N
1515442655.8,286047000.7,N
1515442675.6,286047000.6,N
1515442695.5,286047000.8,N
1515442715.3,286046998.4,N
1515442735.2,286046998.4,N
1515442755.9,286046998.4,N
1515442775.7,286046999.5,N
1515442795.6,286046999.0,N
1515442815.4,286046998.3,N
1515442835.3,286046998.1,N
1515442855.1,286046998.2,N
1515442856.0,286046998.2,N
1515442875.8,286046999.4,N
1515442895.7,286046999.3,N
1515442915.5,286046999.5,N
1515442935.3,286046997.1,N
1515442955.2,286046999.2,N
1515442975.0,286046999.5,N
1515442975.9,286046999.5,N
1515442995.8,286046998.3,N
1515443015.6,286046999.0,N
1515443035.4,286046998.9,N
1515443055.3,286046998.7,N
1515443075.1,286046998.2,N
1515443095.9,286046998.1,N
1515443115.7,286047001.2,N
1515443135.5,286046999.4,N
1515443155.4,286046998.6,N
1515443175.2,286046998.8,N
1515443195.0,286047000.7,N
1515443195.9,286047000.7,N
1515443215.8,286047000.3,N
1515443235.6,286047001.0,N
1515443255.5,286047000.0,N
1515443275.3,286047000.9,N
1515443295.1,286047002.3,N
1515443315.9,286047002.3,N
1515443335.7,286047002.7,N
1515443355.5,286047001.6,N
1515443375.4,286047000.0,N
1515443395.2,286047000.8,N
1515443415.1,286046998.3,N
1515443416.0,286046998.3,N
1515443435.8,286047000.5,N
1515443455.6,286046996.5,N
1515443475.5,286046999.6,N
1515443495.3,286046999.2,N
1515443515.1,286046998.2,N
1515443535.9,286046998.2,N
1515443555.7,286046998.3,N
1515443575.6,286046999.6,N
1515443595.4,286046996.9,N
1515443615.2,286046999.5,N
1515443635.1,286046998.1,N
1515443636.0,286046998.1,N
1515443655.8,286047000.9,N
1515443675.6,286047002.1,N
1515443695.5,286047001.4,N
1515443715.3,286047004.1,N
1515443735.2,286047002.9,N
1515443755.9,286047003.7,N
1515443775.7,286047004.4,N
1515443795.6,286047001.8,N
1515443815.4,286047002.0,N
1515443835.2,286047002.8,N
1515443855.1,286047000.6,N
1515443856.0,286047000.6,N
1515443875.8,286047002.5,N
1515443895.7,286047001.9,N
1515443915.5,286047000.8,N
1515443935.3,286046998.1,N
1515443955.2,286047000.6,N
1515443975.0,286047000.7,N
1515443975.9,286047000.7,N
1515443995.8,286047001.2,N
1515444015.6,286047000.4,N
1515444035.4,286047001.0,N
1515444055.3,286047002.5,N
1515444075.1,286047002.0,N
1515444095.8,286047002.4,N
1515444115.7,286047000.4,N
1515444135.5,286047000.7,N
1515444155.4,286047000.0,N
1515444175.2,286047000.6,N
1515444195.0,286046999.6,N
1515444195.9,286046999.6,N
1515444215.8,286046996.6,N
1515444235.6,286046999.2,N
1515444255.4,286046999.3,N
1515444275.3,286046996.8,N
1515444295.1,286046997.3,N
1515444315.9,286046997.4,N
1515444335.7,286046997.8,N
1515444355.5,286046997.0,N
1515444375.4,286046997.4,N
1515444395.2,286046999.6,N
1515444415.0,286046997.7,N
1515444415.9,286046997.7,N
1515444435.8,286046997.8,N
1515444455.6,286046998.0,N
1515444475.5,286046995.3,N
1515444495.3,286046997.6,N
1515444515.1,286046995.4,N
1515444535.9,286046995.0,N
1515444555.7,286046995.6,N
1515444575.6,286046995.8,N
1515444595.4,286046995.2,N
1515444615.2,286046996.1,N
1515444635.1,286046995.7,N
1515444636.0,286046995.7,N
1515444655.8,286046993.9,Y
1515444675.6,286046997.4,P
1515444695.5,286046997.6,P
1515444715.3,286046997.5,P
1515444735.2,286046993.4,Y
1515444755.9,286046998.8,P
1515444775.7,286046996.6,P
1515444795.6,286046996.6,P
1515444815.4,286046996.9,Y
1515444835.3,286047000.7,P
1515444855.1,286047000.9,N
1515444856.0,286047000.9,N
1515444875.8,286047002.7,N
1515444895.7,286047000.2,N
1515444915.5,286047001.0,N
1515444935.3,286047001.2,N
1515444955.2,286047000.8,N
1515444975.0,286046999.1,N
1515444975.9,286046999.1,N
1515444995.8,286046998.3,N
1515445015.6,286046996.9,N
1515445035.4,286046999.5,N
1515445055.3,286046999.6,N
1515445075.1,286046997.3,N
1515445095.8,286046998.8,N
1515445115.7,286046997.3,N
1515445135.5,286046996.8,N
1515445155.4,286046997.1,N
1515445175.2,286046997.4,N
1515445195.0,286046998.5,N
1515445195.9,286046998.5,N
